Regional Weather Roundup
Issued by NWS Cleveland, OH

Home | Current Version | Previous Version | Text Only | Print | Product List | Glossary On
Versions: 1 2 3 4 5 6 7 8 9 10 11 12 13 14 15 16 17 18 19 20 21 22 23 24 25 26 27 28 29 30 31 32 33 34 35 36 37 38 39 40 41 42 43 44 45 46 47 48 49 50
000
ASUS41 KCLE 291310
RWRCLE
OHIO REGIONAL WEATHER ROUNDUP
NATIONAL WEATHER SERVICE WILMINGTON, OH
900 AM EDT TUE JUL 29 2014

NOTE: "FAIR" INDICATES FEW OR NO CLOUDS BELOW 12,000 FEET WITH NO
SIGNIFICANT WEATHER AND/OR OBSTRUCTIONS TO VISIBILITY.

OHZ001>008-015>018-024>027-034-035-043-044-291400-
   NORTHWEST OHIO

CITY           SKY/WX    TMP DP  RH WIND       PRES   REMARKS
DEFIANCE       SUNNY     56  51  84 CALM      30.05R
FINDLAY        SUNNY     57  50  77 W6        30.04R
TOLEDO EXPRESS SUNNY     59  49  69 W6        30.03R
TOLEDO METCALF SUNNY     60  49  66 W7        30.04R
LIMA           SUNNY     57  51  80 NW3       30.05R
$$

OHZ009>014-019>023-028>033-038-089-291400-
   NORTHEAST OHIO

CITY           SKY/WX    TMP DP  RH WIND       PRES   REMARKS
CLE-HOPKINS    PTSUNNY   61  50  67 W7        30.02R
CLE-LAKEFRONT  PTSUNNY   64  46  52 NW9       29.98R
CUY CO. ARPT   PTSUNNY   63  52  67 N9        30.00R
LORAIN-ELYRIA  CLOUDY    63  52  67 W6        30.02R
ASHTABULA      CLOUDY    61  51  70 N5        29.99R
AKRON-CANTON   CLOUDY    56  50  80 W7        30.00R
WOOSTER        PTSUNNY   57  51  80 W6        30.02R
MANSFIELD      MOSUNNY   56  50  80 W3        30.03R
YOUNGSTOWN     CLOUDY    59  51  75 W5        29.99R
$$

OHZ042-051>053-060>062-070>072-077>081-291400-
  SOUTHWEST OHIO

CITY           SKY/WX    TMP DP  RH WIND       PRES   REMARKS
CINC-COVINGTON MOSUNNY   56  51  84 N8        30.06R
CINC-LUNKEN    MOSUNNY   58  52  80 N5        30.06R
HAMILTON       SUNNY     58  53  84 N5        30.06R
DAYTON         MOSUNNY   58  51  78 N8        30.07R
WRIGHT-PAT AFB MOSUNNY   58  53  82 NW8       30.05R
DAYTON GENERAL SUNNY     59  52  77 N8        30.04R
WILMINGTON     CLOUDY    58  54  86 N8        30.04R
$$

OHZ036-037-039>041-045>050-054>059-063>069-073>076-082>088-291400-
  CENTRAL AND SOUTHEAST OHIO

CITY           SKY/WX    TMP DP  RH WIND       PRES   REMARKS
COLUMBUS       PTSUNNY   63  52  67 N5        30.03R
OSU AIRPORT    CLOUDY    60  54  80 N8        30.03R
BOLTON FIELD   CLOUDY    59  55  88 W5        30.02S
RICKENBACK AFB CLOUDY    62  50  65 NE3       30.03R
NEWARK         CLOUDY    61  51  70 CALM      30.03R
MARION         MOSUNNY   57  49  74 N5        30.04R
LANCASTER      CLOUDY    61  53  75 NE3       30.03R
ZANESVILLE     MOSUNNY   61  49  64 NW5       30.02R
NEW PHILLY     SUNNY     58  52  80 W3        30.02R
$$


USA.gov is the U.S. government's official web portal to all federal, state and local government web resources and services.